Location: ?????
(31.8092°N, 35.2590°E)
Time: 19:54:11
(UTC+00:00)

Cosmos 2219 Rocket - Pass Details

Date: 20 June 2021
Orbit: 828 x 846 km, 71.0° (Epoch: 23 July)

Event Time Altitude Azimuth Distance (km) Brightness Sun altitude
Exits shadow 18:33:27 22° 180° (S) 1,770 3.5 -18.9°
Maximum altitude 18:37:05 60° 107° (ESE) 960 2.2 -19.4°
Drops below altitude 10° 18:42:39 10° 28° (NNE) 2,469 4.8 -20.3°
Sets 18:45:07 0° 25° (NNE) 3,406 5.6 -20.6°
